Location: Burleson Alternative School
(32.5290°N, 97.3406°W)
Time: 10:09:09
(UTC+00:00)

Vanguard 2 Rocket - Pass Details

Date: 09 November 2025
Orbit: 553 x 3287 km, 32.9° (Epoch: 07 December)

Event Time Altitude Azimuth Distance (km) Brightness Sun altitude
Exits shadow 08:48:25 28° 170° (S) 4,466 10.2 -51.8°
Drops below altitude 10° 08:57:07 10° 150° (SSE) 6,126 11.2 -50.0°
Sets 09:02:45 0° 144° (SE) 7,246 11.7 -48.8°
